Weather History for KPSP - August, 2013

Change the Weather History Date:

Thursday, August 1, 2013

  Actual Average Record
Temperature  
Mean Temperature 89 °F 93 °F  
Max Temperature 106 °F 107 °F 123 °F (1993)
Min Temperature 71 °F 78 °F 60 °F (1933)
Degree Days  
Heating Degree Days 0 0  
Month to date heating degree days 0 0  
Since 1 June heating degree days 0 0  
Since 1 July heating degree days 0 0  
Cooling Degree Days 24 28  
Month to date cooling degree days 24 28  
Year to date cooling degree days 2701 2280  
Since 1 June cooling degree days 1659 1521  
Growing Degree Days 38 (Base 50)    
Moisture  
Dew Point 43 °F    
Average Humidity 32    
Maximum Humidity 57    
Minimum Humidity 6    
Precipitation  
Precipitation 0.00 in 0.01 in 2.03 in (1930)
Month to date precipitation 0.00 0.01  
Year to date precipitation 1.91 3.20  
Since 1 July precipitation 0.94 0.26  
Snow  
Snow 0.00 in - - ()
Month to date snowfall 0.0  
Year to date snowfall 0.0  
Since 1 July snowfall 0.0  
Snow Depth 0.00 in    
Sea Level Pressure  
Sea Level Pressure 29.79 in    
Wind  
Wind Speed 4 mph (WNW)    
Max Wind Speed 23 mph    
Max Gust Speed 28 mph    
Visibility 10 miles    
Events      
T = Trace of Precipitation, MM = Missing Value Source: NWS Daily Summary

Daily Weather History Graph

Daily Weather History Graph

Search for Another Location

Airport or City:

Trip Planner

Search our weather history database for the weather conditions in past years. The results will help you decide how hot, cold, wet, or windy it might be!

Date:

Astronomy

Aug. 01, 2013 Rise Set
Actual Time 5:58 AM PDT 7:46 PM PDT
Civil Twilight 5:30 AM PDT 8:13 PM PDT
Nautical Twilight 4:57 AM PDT 8:46 PM PDT
Astronomical Twilight 4:22 AM PDT 9:21 PM PDT
Moon 1:38 AM PDT (8/1) 3:56 PM PDT (8/1)
Length of Visible Light 14h 42m
Length of Day
13h 48m
Waning Crescent, 22% of the Moon is Illuminated
Aug 1
Waning Crescent
Aug 6
New
Aug 14
First Quarter
Aug 20
Full
Aug 28
Last Quarter

Hourly Weather History & Observations

Time (PDT) Temp. Dew Point Humidity Pressure Visibility Wind Dir Wind Speed Gust Speed Precip Events Conditions
12:53 AM 80.1 °F 51.1 °F 36% 29.83 in 10.0 mi Calm Calm - N/A   Clear
1:53 AM 75.9 °F 53.1 °F 45% 29.83 in 10.0 mi Calm Calm - N/A   Clear
2:53 AM 77.0 °F 48.9 °F 37% 29.81 in 10.0 mi WSW 3.5 mph - N/A   Clear
3:53 AM 75.0 °F 54.0 °F 48% 29.81 in 10.0 mi Calm Calm - N/A   Clear
4:53 AM 73.0 °F 53.1 °F 49% 29.81 in 10.0 mi Calm Calm - N/A   Clear
5:53 AM 71.1 °F 55.9 °F 59% 29.82 in 10.0 mi SSW 3.5 mph - N/A   Clear
6:53 AM 75.0 °F 55.0 °F 50% 29.83 in 10.0 mi West 3.5 mph - N/A   Clear
7:53 AM 78.1 °F 51.1 °F 39% 29.84 in 10.0 mi Calm Calm - N/A   Scattered Clouds
8:53 AM 84.9 °F 48.0 °F 28% 29.85 in 10.0 mi Calm Calm - N/A   Clear
9:53 AM 91.0 °F 42.1 °F 18% 29.85 in 10.0 mi Calm Calm - N/A   Clear
10:53 AM 96.1 °F 36.0 °F 12% 29.84 in 10.0 mi Calm Calm - N/A   Clear
11:53 AM 100.0 °F 21.9 °F 6% 29.82 in 10.0 mi Calm Calm - N/A   Clear
12:53 PM 102.0 °F 28.9 °F 8% 29.81 in 10.0 mi NNW 10.4 mph - N/A   Clear
1:53 PM 102.9 °F 30.9 °F 8% 29.79 in 10.0 mi NW 12.7 mph 20.7 mph N/A   Clear
2:53 PM 104.0 °F 28.9 °F 7% 29.77 in 10.0 mi North 9.2 mph - N/A   Clear
3:53 PM 105.1 °F 34.0 °F 9% 29.74 in 10.0 mi NW 12.7 mph 27.6 mph N/A   Clear
4:53 PM 102.0 °F 39.0 °F 11% 29.73 in 10.0 mi NW 18.4 mph 23.0 mph N/A   Clear
5:53 PM 100.9 °F 37.9 °F 11% 29.72 in 10.0 mi NW 19.6 mph 29.9 mph N/A   Clear
6:53 PM 97.0 °F 37.0 °F 12% 29.72 in 10.0 mi NW 23.0 mph 27.6 mph N/A   Clear
7:53 PM 93.9 °F 39.9 °F 15% 29.73 in 10.0 mi NW 18.4 mph 27.6 mph N/A   Clear
8:53 PM 91.0 °F 45.0 °F 20% 29.73 in 10.0 mi NW 19.6 mph 28.8 mph N/A   Clear
9:53 PM 89.1 °F 45.0 °F 22% 29.75 in 10.0 mi NW 10.4 mph - N/A   Clear
10:53 PM 86.0 °F 46.0 °F 25% 29.75 in 10.0 mi WNW 5.8 mph - N/A   Clear
11:53 PM 82.0 °F 48.0 °F 30% 29.76 in 10.0 mi South 6.9 mph - N/A   Clear